KF4VX-15 Weather Reports


time (UTC)temp
C
wind
direction
speed
KPH
gust
KPH
rain 1hr
cm
rain 24hr
cm
rain mn
cm
humidity
%
barometer
mb
20260906103028 20 52 0.0 1.6 0.00 0.00 0.00 95 1010.8
20260906101527 20 52 0.0 1.6 0.00 0.00 0.00 95 1010.9
20260906100025 20 52 0.0 1.6 0.00 0.00 0.00 95 1010.8
20260906094535 20 52 0.0 1.6 0.00 0.00 0.00 94 1010.7
20260906093034 20 52 0.0 1.6 0.00 0.00 0.00 94 1010.6
20260906091522 20 52 0.0 6.4 0.00 0.00 0.00 94 1010.5
20260906090022 20 52 0.0 4.8 0.00 0.00 0.00 93 1010.4
20260906084532 21 52 1.6 4.8 0.00 0.00 0.00 93 1010.4
20260906083026 21 52 1.6 8.0 0.00 0.00 0.00 93 1010.5
20260906081521 21 52 1.6 8.0 0.00 0.00 0.00 93 1010.5
20260906080028 21 52 0.0 11.3 0.00 0.00 0.00 94 1010.4
20260906074520 21 52 4.8 12.9 0.00 0.00 0.00 94 1010.3
20260906073019 21 52 1.6 6.4 0.00 0.00 0.00 94 1010.2
20260906071517 21 52 0.0 4.8 0.00 0.00 0.00 94 1010.2
20260906070015 21 52 1.6 6.4 0.00 0.00 0.00 94 1010.4
20260906064515 20 52 0.0 0.0 0.00 0.00 0.00 94 1010.4
20260906063014 21 52 0.0 0.0 0.00 0.00 0.00 94 1010.6
20260906061512 21 52 0.0 0.0 0.00 0.00 0.00 94 1010.6
20260906060008 21 52 0.0 8.0 0.00 0.00 0.00 94 1011.0
20260906054507 21 52 0.0 4.8 0.00 0.00 0.00 93 1011.2
20260906053005 21 52 0.0 3.2 0.00 0.00 0.00 93 1011.3
20260906051507 21 52 0.0 6.4 0.00 0.00 0.00 93 1011.4
20260906050002 21 52 1.6 12.9 0.00 0.00 0.00 93 1011.4
20260906044559 21 52 1.6 6.4 0.00 0.00 0.00 94 1011.6
20260906043100 21 52 0.0 4.8 0.00 0.00 0.00 93 1011.3
20260906041557 21 52 0.0 1.6 0.00 0.00 0.00 93 1011.4
20260906040052 21 52 0.0 6.4 0.00 0.00 0.00 92 1011.5
20260906034554 22 52 0.0 3.2 0.00 0.00 0.00 92 1011.8
20260906033052 22 52 3.2 14.5 0.00 0.00 0.00 92 1011.5
20260906031550 22 52 3.2 11.3 0.00 0.00 0.00 93 1011.6
20260906030050 21 52 0.0 0.0 0.00 0.00 0.00 93 1011.5
20260906024601 21 52 0.0 0.0 0.00 0.00 0.00 93 1011.5
20260906023049 21 52 0.0 0.0 0.00 0.00 0.00 91 1011.4
20260906021549 22 52 0.0 0.0 0.00 0.00 0.00 92 1011.7
20260906020050 21 52 0.0 0.0 0.00 0.00 0.00 91 1011.8
20260906014600 22 52 0.0 1.6 0.00 0.00 0.00 91 1011.5
20260906013047 22 52 0.0 0.0 0.00 0.00 0.00 91 1011.2
20260906011547 22 52 0.0 0.0 0.00 0.00 0.00 90 1010.9
20260906010046 22 52 0.0 0.0 0.00 0.00 0.00 90 1010.8
20260906004546 23 52 0.0 0.0 0.00 0.00 0.00 89 1010.8
20260906003100 23 52 0.0 0.0 0.00 0.00 0.00 88 1010.4
20260906001545 23 52 0.0 4.8 0.00 0.00 0.00 87 1010.2
20260906000044 23 52 0.0 1.6 0.00 0.00 0.00 85 1010.2
20260905234544 24 52 0.0 0.0 0.00 0.00 0.00 82 1010.1
20260905233044 25 52 0.0 6.4 0.00 0.00 0.00 80 1010.2
20260905231544 25 52 0.0 11.3 0.00 0.00 0.00 78 1010.2
20260905230042 26 52 1.6 8.0 0.00 0.00 0.00 76 1010.2
20260905224542 26 52 0.0 6.4 0.00 0.00 0.00 75 1009.8
20260905223041 27 52 0.0 8.0 0.00 0.00 0.00 75 1009.8
20260905221544 26 52 0.0 6.4 0.00 0.00 0.00 77 1010.1
20260905220044 26 52 0.0 12.9 0.00 0.00 0.00 79 1010.1
20260905214539 26 52 0.0 6.4 0.00 0.00 0.00 79 1010.2
20260905213041 26 52 0.0 9.7 0.00 0.00 0.00 80 1009.8
20260905211542 26 52 0.0 9.7 0.00 0.00 0.00 78 1009.9
20260905210036 26 52 1.6 16.1 0.00 0.00 0.00 78 1010.4
20260905204535 27 52 1.6 8.0 0.00 0.00 0.00 75 1010.4
20260905203035 27 52 1.6 9.7 0.00 0.00 0.00 73 1010.7
20260905201538 27 52 4.8 16.1 0.00 0.00 0.00 72 1011.0
20260905200043 26 51 1.6 17.7 0.00 0.00 0.00 71 1010.9
20260905194539 26 55 6.4 17.7 0.00 0.00 0.00 73 1011.9
20260905193033 25 59 1.6 11.3 0.00 0.00 0.00 77 1011.0
20260905191533 24 59 4.8 16.1 0.00 0.00 0.00 78 1010.9
20260905190035 27 59 4.8 19.3 0.00 0.00 0.00 64 1011.3
20260905184534 30 60 9.7 30.6 0.00 0.00 0.00 55 1011.0
20260905183033 33 41 0.0 0.0 0.00 0.00 0.00 57 1010.5
20260905181535 33 41 0.0 14.5 0.00 0.00 0.00 53 1010.5
20260905180027 33 41 0.0 8.0 0.00 0.00 0.00 53 1010.5
20260905174525 33 41 1.6 8.0 0.00 0.00 0.00 59 1010.8
20260905173023 32 41 4.8 11.3 0.00 0.00 0.00 57 1011.0
20260905171526 32 41 1.6 4.8 0.00 0.00 0.00 57 1010.9
20260905170020 32 41 3.2 8.0 0.00 0.00 0.00 59 1011.0
20260905164518 32 41 3.2 8.0 0.00 0.00 0.00 59 1011.4
20260905163015 32 41 1.6 8.0 0.00 0.00 0.00 64 1011.9
20260905161514 32 41 1.6 8.0 0.00 0.00 0.00 63 1011.9
20260905160030 32 41 0.0 3.2 0.00 0.00 0.00 65 1012.0
20260905154506 31 41 0.0 3.2 0.00 0.00 0.00 66 1012.2
20260905153003 30 41 0.0 4.8 0.00 0.00 0.00 68 1012.5
20260905151600 30 41 1.6 9.7 0.00 0.00 0.00 73 1012.4
20260905150100 29 41 0.0 8.0 0.00 0.00 0.00 74 1012.4
20260905144555 28 41 1.6 6.4 0.00 0.00 0.00 77 1012.6
20260905143055 27 41 0.0 6.4 0.00 0.00 0.00 79 1012.7
20260905141547 27 41 0.0 4.8 0.00 0.00 0.00 81 1012.7
20260905140042 26 41 1.6 9.7 0.00 0.00 0.00 81 1013.0
20260905134543 26 41 0.0 6.4 0.00 0.00 0.00 82 1013.1
20260905133039 25 41 0.0 4.8 0.00 0.00 0.00 86 1013.2
20260905131545 24 41 4.8 12.9 0.00 0.00 0.00 87 1013.4
20260905130028 23 41 3.2 12.9 0.00 0.00 0.00 90 1013.3
20260905124532 22 41 1.6 8.0 0.00 0.00 0.00 92 1013.3
20260905123024 22 41 1.6 8.0 0.00 0.00 0.00 93 1013.3
20260905121523 22 41 1.6 8.0 0.00 0.00 0.00 94 1013.1
20260905120022 21 41 1.6 9.7 0.00 0.00 0.00 94 1013.1
20260905114535 21 41 1.6 9.7 0.00 0.00 0.00 96 1012.9
20260905113032 21 41 3.2 9.7 0.00 0.00 0.00 96 1012.7
20260905111524 21 41 3.2 9.7 0.00 0.00 0.00 96 1012.5
20260905110019 21 41 1.6 8.0 0.00 0.00 0.00 96 1012.3
20260905104522 21 41 0.0 4.8 0.00 0.00 0.00 96 1012.3